Terminal Aerodrome Forecast
Issued by NWS Charleston, WV

Current Version | Previous Version | Graphics & Text | Print | Product List | Glossary On
Versions: 1 2 3 4 5 6 7 8 9 10 11 12 13 14 15 16 17 18 19 20 21 22 23 24 25
795
FTUS41 KRLX 220907 AAA
TAFCRW
TAF AMD
KCRW 220907Z 2209/2306 32004KT 5SM BR BKN008
      TEMPO 2211/2212 SCT008
     FM221200 32004KT P6SM BKN015
     FM221400 32006KT P6SM BKN040
     FM222000 30007KT P6SM SHRA VCTS BKN050CB
     FM230000 33005KT P6SM BKN050
     FM230400 VRB03KT P6SM BKN060=

USA.gov is the U.S. government's official web portal to all federal, state and local government web resources and services.